[[{"header":{"parameterUnit":"m.s-1","parameterCategory":2,"la1":30.2991,"la2":30.254,"lo1":-89.0895,"lo2":-89.0444,"dx":0.0017,"dy":0.0017,"nx":28,"ny":28,"refTime":"2022-12-09T15:00:00:Z","depth":"0","parameterNumber":2,"parameterNumberName":"U-component_of_CURRENTS"},"data":[0,0,0,0,0,0,0,0,0,0,0,0,0,0,0,0,0,0,0,0,0,0,0,0,0,0,0,0,0,0,0,0,0,0,0,0,0,0,0,0,0,0,0,0,0,0,0,0,0,0,0,0,0,0,0,0,0,0,0.1274,0.1274,0,0.1255,0.1255,0.1254,0.1215,0.1215,0.1215,0.1214,0.1114,0.1111,0.1109,0,0,0,0,0,0,0,0,0,0,0,0,0,0.1204,0.1206,0.1274,0.1274,0.1274,0.1255,0.1255,0.1254,0.1216,0.1215,0.1214,0.1214,0.1114,0.1112,0.1109,0,0,0,0,0,0,0,0,0,0,0,0,0,0.1212,0.1207,0.1274,0.1255,0.1253,0.1255,0.1255,0.1254,0.1216,0.1215,0.1214,0.1214,0.1115,0.1112,0.1109,0.1102,0,0,0.1098,0.1097,0,0,0,0,0,0,0,0,0.1212,0.1214,0.1257,0.1256,0.1254,0.124,0.1194,0.12,0.1216,0.1226,0.1214,0.1213,0.1151,0.1145,0.1139,0.1097,0.1093,0.1098,0.1096,0.1095,0.1094,0,0,0,0,0,0,0,0.1211,0.1214,0.1263,0.1258,0.1256,0.1223,0.1224,0.1194,0.1189,0.1225,0.1223,0.1227,0.1149,0.1142,0.1136,0.1091,0.1098,0.1095,0.1093,0.1092,0.1048,0.1049,0,0,0,0,0,0,0.1225,0.1215,0.1263,0.1263,0.1235,0.1226,0.1226,0.1242,0.1191,0.1184,0.1228,0.1225,0.1149,0.114,0.1132,0.1148,0.1095,0.1091,0.109,0.1048,0.1049,0.105,0,0,0,0,0,0,0.1224,0.1231,0.1264,0.124,0.1242,0.1228,0.1246,0.1243,0.1242,0.1194,0.1184,0.1232,0.1148,0.1137,0.112,0.1143,0.109,0.1087,0.1047,0.1048,0.1049,0.1162,0,0,0,0,0,0,0.1223,0.123,0.1244,0.1241,0.1244,0.1279,0.1247,0.1243,0.1246,0.1243,0.1195,0.1184,0.1146,0.1126,0.1117,0.1137,0.1084,0.1045,0.1047,0.1049,0.1157,0.1167,0.1176,0,0,0,0,0,0.122,0.1246,0.1245,0.1251,0.1265,0.128,0.1279,0.1262,0.1248,0.1257,0.1225,0.1186,0.1129,0.1124,0.1113,0.1133,0.1045,0.1047,0.1049,0.1153,0.1165,0.1175,0,0,0,0,0,0,0.1222,0.1245,0.1244,0.1275,0.1283,0.1275,0.1283,0.1273,0.1256,0.1249,0.1199,0.1187,0.1178,0.1141,0.1136,0.1124,0.108,0.108,0.1163,0.1174,0.1183,0.1216,0.1082,0,0,0,0,0,0.1231,0.1259,0.127,0.1296,0.1303,0.1295,0.1297,0.1291,0.1278,0.127,0.124,0.1204,0.1177,0.1165,0.1132,0.113,0.1219,0.1134,0.1143,0.1152,0.1171,0.1314,0.134,0.1056,0.1056,0.1056,0,0,0.124,0.1256,0.1271,0.1298,0.13,0.1324,0.1294,0.131,0.1325,0.1261,0.1269,0.1233,0.1182,0.118,0.1173,0.1153,0.1299,0.1154,0.1162,0.1177,0.1319,0.1347,0.1373,0.1057,0.1057,0.1057,0,0,0.1277,0.1286,0.1324,0.1335,0.1352,0.1348,0.1359,0.1361,0.1358,0.1363,0.132,0.1311,0.1266,0.1248,0.1228,0.1269,0.1339,0.1247,0.1326,0.1465,0.1491,0.1515,0.1766,0.181,0.1256,0.1257,0.1257,0,0.1287,0.1335,0.1334,0.1369,0.1384,0.1366,0.1403,0.14,0.1396,0.14,0.1378,0.135,0.1304,0.1315,0.1326,0.1293,0.1427,0.1291,0.1484,0.1508,0.1531,0.1781,0.1829,0.1262,0.1262,0.1261,0.1261,0,0.1356,0.1385,0.1406,0.1447,0.146,0.1488,0.1489,0.1495,0.1486,0.1484,0.1497,0.146,0.1454,0.1428,0.1387,0.1498,0.1569,0.1484,0.1471,0.1568,0.1825,0.1873,0.1271,0.1268,0.1267,0.1265,0,0,0.1427,0.1449,0.1462,0.1474,0.1504,0.1517,0.1546,0.1568,0.1589,0.1589,0.1648,0.1596,0.1597,0.1576,0.1538,0.1634,0.1926,0.1638,0.1643,0.1917,0.2359,0.2464,0.2528,0.189,0.1897,0.1902,0.2514,0,0.1489,0.1542,0.155,0.1598,0.1624,0.1613,0.164,0.1651,0.1657,0.1707,0.1697,0.1729,0.1649,0.1671,0.1759,0.1863,0.2042,0.1775,0.2196,0.2212,0.2315,0.258,0.2558,0.3103,0.2562,0.257,0.2576,0,0.1583,0.1595,0.1645,0.1657,0.1671,0.1693,0.1725,0.1748,0.1795,0.1814,0.1859,0.187,0.2006,0.1918,0.2243,0.2091,0.2257,0.2348,0.2372,0.2456,0.2403,0.2894,0.3212,0.3108,0.265,0.2644,0.2639,0,0.1638,0.1673,0.1702,0.1711,0.1724,0.1739,0.1748,0.1777,0.1816,0.1907,0.1988,0.2103,0.223,0.2407,0.2594,0.2467,0.2998,0.2842,0.3124,0.3138,0.3192,0.3198,0.3472,0.3133,0.3131,0.313,0.3128,0,0.1717,0.1748,0.1718,0.1736,0.1757,0.1769,0.1811,0.1828,0.192,0.2016,0.2061,0.2213,0.2359,0.2636,0.2763,0.3165,0.3174,0.3249,0.3316,0.3239,0.3241,0.32,0.3115,0.3153,0.3148,0.3143,0.3139,0,0.1793,0.1782,0.1803,0.1793,0.1782,0.18,0.1835,0.1881,0.1972,0.2127,0.2193,0.2418,0.2794,0.2991,0.3358,0.3445,0.3713,0.3871,0.3832,0.3881,0.397,0.3892,0.4103,0.4035,0.4328,0.4335,0.434,0,0.1842,0.1856,0.1822,0.1809,0.1802,0.1813,0.1829,0.1893,0.1978,0.2258,0.2381,0.277,0.3057,0.3683,0.3905,0.4302,0.405,0.4494,0.4188,0.4088,0.4051,0.3737,0.3635,0.4375,0.4381,0.4385,0.4388,0,0.1912,0.1892,0.1879,0.185,0.1847,0.186,0.1912,0.2001,0.2145,0.2332,0.2687,0.2954,0.3535,0.3938,0.4411,0.4591,0.4311,0.4596,0.4485,0.4154,0.3842,0.3768,0.3919,0.4427,0.4423,0.442,0.4418,0.4417,0.1955,0.194,0.1906,0.19,0.1893,0.1956,0.2014,0.2129,0.2328,0.2656,0.2879,0.3294,0.383,0.4487,0.4622,0.4854,0.4659,0.4793,0.475,0.4471,0.4247,0.4546,0.5075,0.5075,0.5075,0.5075,0.5074,0,0.2051,0.1996,0.196,0.197,0.2017,0.1995,0.211,0.2212,0.2478,0.2783,0.3106,0.3709,0.4192,0.455,0.4992,0.4984,0.4679,0.4915,0.4428,0.435,0.4682,0.4513,0.4948,0.4948,0.4948,0.4948,0.4948,0.4948,0.2089,0.2082,0.2057,0.2115,0.2126,0.222,0.2307,0.2447,0.2651,0.3083,0.3419,0.3682,0.42,0.4793,0.5004,0.4947,0.4577,0.4512,0.4403,0.4584,0.4561,0.4539,0.4356,0.4751,0.4751,0.388,0.3874,0.387]},{"header":{"parameterUnit":"m.s-1","parameterCategory":2,"la1":30.2991,"la2":30.254,"lo1":-89.0895,"lo2":-89.0444,"dx":0.0017,"dy":0.0017,"nx":28,"ny":28,"refTime":"2022-12-09T15:00:00:Z","depth":"0","parameterNumber":3,"parameterNumberName":"V-component_of_CURRENTS"},"data":[0,0,0,0,0,0,0,0,0,0,0,0,0,0,0,0,0,0,0,0,0,0,0,0,0,0,0,0,0,0,0,0,0,0,0,0,0,0,0,0,0,0,0,0,0,0,0,0,0,0,0,0,0,0,0,0,0,0,-0.1184,-0.1184,0,-0.1193,-0.1194,-0.1194,-0.119,-0.119,-0.119,-0.1189,-0.1252,-0.1254,-0.1256,0,0,0,0,0,0,0,0,0,0,0,0,0,-0.1143,-0.1144,-0.1184,-0.1184,-0.1184,-0.1193,-0.1194,-0.1194,-0.119,-0.119,-0.119,-0.1189,-0.1251,-0.1253,-0.1256,0,0,0,0,0,0,0,0,0,0,0,0,0,-0.1159,-0.1145,-0.1184,-0.1183,-0.1182,-0.1193,-0.1194,-0.1194,-0.1191,-0.119,-0.119,-0.1189,-0.125,-0.1253,-0.1256,-0.1285,0,0,-0.1265,-0.1266,0,0,0,0,0,0,0,0,-0.1158,-0.1161,-0.1183,-0.1183,-0.1182,-0.1189,-0.1202,-0.1226,-0.1191,-0.1189,-0.1189,-0.1189,-0.1235,-0.1239,-0.1243,-0.1288,-0.129,-0.1265,-0.1267,-0.1269,-0.1269,0,0,0,0,0,0,0,-0.1157,-0.116,-0.1189,-0.1183,-0.1183,-0.1174,-0.1176,-0.1206,-0.1217,-0.1189,-0.1189,-0.1187,-0.1236,-0.1241,-0.1245,-0.1291,-0.1265,-0.1268,-0.127,-0.1271,-0.14,-0.1401,0,0,0,0,0,0,-0.1155,-0.116,-0.1189,-0.1189,-0.1167,-0.1175,-0.1178,-0.1189,-0.1215,-0.1218,-0.1188,-0.1187,-0.1236,-0.1242,-0.1247,-0.1309,-0.1269,-0.1271,-0.1273,-0.1398,-0.14,-0.1402,0,0,0,0,0,0,-0.1154,-0.1158,-0.1189,-0.1173,-0.1176,-0.1177,-0.1189,-0.1189,-0.1196,-0.1214,-0.1218,-0.1195,-0.1236,-0.1243,-0.1279,-0.1311,-0.1273,-0.1275,-0.1396,-0.1399,-0.1401,-0.1416,0,0,0,0,0,0,-0.1153,-0.1158,-0.1172,-0.1173,-0.1176,-0.1202,-0.1189,-0.1189,-0.1195,-0.1195,-0.1221,-0.1226,-0.1236,-0.1275,-0.1282,-0.1314,-0.1278,-0.1394,-0.1397,-0.14,-0.1414,-0.1419,-0.1424,0,0,0,0,0,-0.1152,-0.1175,-0.1173,-0.1176,-0.1193,-0.1203,-0.1204,-0.1203,-0.1196,-0.1207,-0.1222,-0.1225,-0.13,-0.1278,-0.1286,-0.132,-0.1392,-0.1396,-0.14,-0.1412,-0.1418,-0.1423,0,0,0,0,0,0,-0.1174,-0.1176,-0.1174,-0.1199,-0.1202,-0.1202,-0.1213,-0.1208,-0.1227,-0.1229,-0.1241,-0.1247,-0.1288,-0.1307,-0.1282,-0.1368,-0.135,-0.1355,-0.1356,-0.1362,-0.1367,-0.1319,-0.128,0,0,0,0,0,-0.1182,-0.1195,-0.1195,-0.1216,-0.1218,-0.1215,-0.122,-0.1218,-0.123,-0.1237,-0.1254,-0.1282,-0.1311,-0.1336,-0.136,-0.1411,-0.1337,-0.1441,-0.1446,-0.145,-0.1418,-0.1349,-0.1343,-0.1414,-0.1414,-0.1414,0,0,-0.1195,-0.12,-0.1207,-0.122,-0.1223,-0.1235,-0.1218,-0.1229,-0.1242,-0.1244,-0.1276,-0.1292,-0.1325,-0.1372,-0.1395,-0.1393,-0.1386,-0.1455,-0.1457,-0.1423,-0.1352,-0.1344,-0.1337,-0.1416,-0.1416,-0.1415,0,0,-0.1223,-0.1232,-0.1248,-0.1251,-0.1255,-0.1256,-0.1259,-0.1263,-0.1269,-0.1299,-0.1303,-0.1329,-0.1386,-0.1406,-0.1426,-0.1475,-0.1404,-0.1503,-0.1501,-0.1435,-0.1427,-0.1419,-0.128,-0.1259,-0.1518,-0.1518,-0.1518,0,-0.1238,-0.1258,-0.1255,-0.1268,-0.1271,-0.1266,-0.1278,-0.129,-0.1306,-0.1298,-0.1315,-0.1347,-0.1397,-0.1418,-0.1453,-0.1483,-0.14,-0.1474,-0.1435,-0.1426,-0.1418,-0.1277,-0.1254,-0.1519,-0.1519,-0.1519,-0.1519,0,-0.1272,-0.1287,-0.1297,-0.1311,-0.1315,-0.1328,-0.1331,-0.1338,-0.1344,-0.1337,-0.1343,-0.1384,-0.1385,-0.1439,-0.1473,-0.1456,-0.1396,-0.1434,-0.1406,-0.141,-0.1263,-0.1239,-0.1521,-0.1521,-0.152,-0.152,0,0,-0.131,-0.1318,-0.1323,-0.1315,-0.1334,-0.1331,-0.1355,-0.135,-0.1306,-0.1353,-0.1283,-0.1399,-0.137,-0.139,-0.1423,-0.141,-0.1306,-0.1406,-0.1402,-0.1239,-0.1081,-0.1005,-0.097,-0.1328,-0.1325,-0.1323,-0.0987,0,-0.1337,-0.1358,-0.1359,-0.1369,-0.1372,-0.1363,-0.1361,-0.1352,-0.1326,-0.1255,-0.1287,-0.1234,-0.1365,-0.1324,-0.1347,-0.1277,-0.1248,-0.1388,-0.1125,-0.1115,-0.1026,-0.0944,-0.0894,-0.0589,-0.0963,-0.0959,-0.0956,0,-0.1375,-0.1374,-0.1391,-0.1354,-0.135,-0.1353,-0.1293,-0.1278,-0.1199,-0.1157,-0.1122,-0.1087,-0.1052,-0.1154,-0.1057,-0.1127,-0.1114,-0.109,-0.1077,-0.0978,-0.0995,-0.0657,-0.053,-0.0816,-0.0917,-0.092,-0.0923,0,-0.1389,-0.1393,-0.1398,-0.1396,-0.1365,-0.135,-0.1318,-0.1251,-0.1146,-0.1039,-0.089,-0.0894,-0.0763,-0.0799,-0.0775,-0.0886,-0.061,-0.0751,-0.0668,-0.0659,-0.0548,-0.0535,-0.0641,-0.0691,-0.0692,-0.0693,-0.0694,0,-0.1416,-0.1412,-0.1396,-0.1393,-0.1338,-0.1323,-0.1207,-0.117,-0.0993,-0.0773,-0.0806,-0.0585,-0.0665,-0.0524,-0.0621,-0.0497,-0.0477,-0.0602,-0.0563,-0.0552,-0.0544,-0.0735,-0.0899,-0.068,-0.0683,-0.0686,-0.0688,0,-0.1425,-0.1432,-0.1414,-0.1376,-0.1344,-0.1297,-0.1099,-0.0951,-0.0828,-0.0512,-0.043,-0.0254,-0.0066,-0.0121,-0.0062,-0.0197,-0.0259,-0.0152,-0.0092,-0.0056,-0.0327,-0.049,-0.0388,-0.0539,0.0002,0.0006,0.0009,0,-0.1422,-0.1425,-0.1382,-0.1311,-0.1286,-0.1176,-0.103,-0.089,-0.0656,-0.0271,-0.0048,0.0201,0.0454,0.0582,0.0392,0.0335,-0.001,0.0278,0.0003,-0.0278,-0.0432,-0.055,-0.0701,0.0175,0.018,0.0183,0.0186,0,-0.1385,-0.139,-0.1359,-0.121,-0.108,-0.0882,-0.0649,-0.0437,-0.0155,0.014,0.0609,0.0834,0.0952,0.0986,0.0844,0.069,0.0083,0.0348,0.0035,-0.0302,-0.0406,-0.0554,-0.0079,0.0218,0.0215,0.0213,0.0211,0.021,-0.1325,-0.1285,-0.1202,-0.1038,-0.086,-0.0513,-0.0262,0.0046,0.0466,0.1005,0.1111,0.1533,0.1452,0.1287,0.0957,0.0413,0.0342,0.0192,0.0038,-0.0041,-0.0277,0.0302,0.062,0.062,0.0619,0.0618,0.0618,0,-0.1165,-0.1096,-0.0974,-0.0701,-0.0381,-0.0347,0.0094,0.0405,0.0957,0.1368,0.1767,0.2112,0.1829,0.1388,0.0762,0.0229,-0.0114,-0.0105,-0.0345,-0.0482,0.0046,-0.0054,0.016,0.016,0.016,0.016,0.0161,0.0161,-0.1053,-0.0891,-0.0811,-0.0261,-0.0031,0.0448,0.073,0.11,0.1444,0.2095,0.2485,0.2735,0.2656,0.124,0.0135,-0.0208,-0.0727,-0.071,-0.1016,-0.078,-0.077,-0.0761,-0.0901,-0.0869,-0.087,-0.1522,-0.1529,-0.1533]}],[{"header":{"parameterUnit":"m.s-1","parameterCategory":2,"la1":30.2991,"la2":30.254,"lo1":-89.0895,"lo2":-89.0444,"dx":0.0017,"dy":0.0017,"nx":28,"ny":28,"refTime":"2022-12-09T15:00:00:Z","depth":"2","parameterNumber":2,"parameterNumberName":"U-component_of_CURRENTS"},"data":[0,0,0,0,0,0,0,0,0,0,0,0,0,0,0,0,0,0,0,0,0,0,0,0,0,0,0,0,0,0,0,0,0,0,0,0,0,0,0,0,0,0,0,0,0,0,0,0,0,0,0,0,0,0,0,0,0,0,0.1427,0.1427,0,0.147,0.147,0.1471,0.1478,0.1478,0.1478,0.1478,0.1478,0.1478,0.1478,0,0,0,0,0,0,0,0,0,0,0,0,0,0.1347,0.1349,0.1427,0.1427,0.1428,0.147,0.147,0.1471,0.1478,0.1478,0.1478,0.1478,0.1478,0.1478,0.1478,0,0,0,0,0,0,0,0,0,0,0,0,0,0.1384,0.1349,0.1426,0.1438,0.144,0.147,0.147,0.1471,0.1478,0.1478,0.1478,0.1478,0.1477,0.1478,0.1478,0.1485,0,0,0.1479,0.1479,0,0,0,0,0,0,0,0,0.1382,0.1386,0.1436,0.1437,0.1439,0.147,0.1443,0.1474,0.1479,0.1462,0.1478,0.1477,0.1472,0.1473,0.148,0.1485,0.1485,0.1479,0.1479,0.1479,0.1479,0,0,0,0,0,0,0,0.1379,0.1384,0.1442,0.1437,0.1439,0.1441,0.1445,0.1449,0.1466,0.1463,0.1464,0.1472,0.1473,0.148,0.148,0.1485,0.1479,0.1479,0.1479,0.1479,0.1556,0.1558,0,0,0,0,0,0,0.1378,0.1382,0.1441,0.1443,0.1411,0.1442,0.1447,0.1459,0.1467,0.1469,0.1473,0.1473,0.1479,0.148,0.148,0.1539,0.1479,0.1479,0.1479,0.1554,0.1556,0.1558,0,0,0,0,0,0,0.1376,0.1383,0.1439,0.1415,0.1422,0.1444,0.1457,0.146,0.1477,0.1475,0.1475,0.1487,0.1479,0.1479,0.1505,0.1537,0.1479,0.148,0.1552,0.1555,0.1557,0.1626,0,0,0,0,0,0,0.1374,0.1382,0.1393,0.1415,0.1424,0.1468,0.1458,0.1461,0.1483,0.1483,0.1488,0.1487,0.1479,0.1505,0.1505,0.1537,0.148,0.1549,0.1553,0.1556,0.1621,0.1631,0.1639,0,0,0,0,0,0.1371,0.139,0.1394,0.1401,0.1437,0.1469,0.1474,0.1486,0.1484,0.1499,0.1508,0.1487,0.1527,0.1506,0.1506,0.1539,0.1548,0.1552,0.1556,0.1617,0.1629,0.1638,0,0,0,0,0,0,0.1364,0.1393,0.1398,0.1425,0.145,0.1471,0.149,0.1495,0.1514,0.1517,0.1508,0.1509,0.1542,0.1534,0.1511,0.1573,0.1536,0.154,0.1582,0.1593,0.1601,0.1592,0.148,0,0,0,0,0,0.1367,0.1388,0.1415,0.1439,0.1453,0.1472,0.1487,0.1498,0.1517,0.1525,0.1531,0.1542,0.1559,0.157,0.1579,0.1611,0.1647,0.1634,0.1643,0.1651,0.1645,0.173,0.1746,0.1572,0.1572,0.1572,0,0,0.137,0.1391,0.1402,0.1439,0.1458,0.1491,0.1481,0.1513,0.154,0.1521,0.1561,0.1568,0.1574,0.1613,0.1628,0.1611,0.1731,0.1656,0.1662,0.1652,0.1736,0.1753,0.1768,0.1575,0.1574,0.1574,0,0,0.1391,0.1408,0.1434,0.1458,0.1495,0.1511,0.1523,0.1555,0.1569,0.1607,0.1605,0.1631,0.1657,0.1671,0.1679,0.1741,0.177,0.1753,0.1794,0.1877,0.1892,0.1905,0.2025,0.2048,0.1762,0.1762,0.1762,0,0.1394,0.1432,0.1447,0.1481,0.1505,0.1523,0.1558,0.158,0.1616,0.1634,0.1628,0.1686,0.1682,0.1736,0.1758,0.1759,0.183,0.1752,0.1889,0.1903,0.1915,0.2034,0.2059,0.1766,0.1766,0.1765,0.1765,0,0.1436,0.1468,0.1489,0.1536,0.1562,0.1598,0.1629,0.1659,0.1677,0.1698,0.1752,0.1762,0.1799,0.1808,0.1798,0.1887,0.1921,0.1888,0.1862,0.1937,0.2058,0.2083,0.1772,0.177,0.1769,0.1768,0,0,0.1442,0.1504,0.1514,0.1537,0.1594,0.1617,0.1669,0.1718,0.1764,0.1791,0.1859,0.1873,0.1886,0.1896,0.1902,0.1961,0.2118,0.1969,0.1972,0.2087,0.2356,0.2266,0.2285,0.2124,0.2127,0.213,0.2425,0,0.1474,0.1534,0.1563,0.1621,0.1652,0.1685,0.1731,0.1775,0.1823,0.1897,0.1912,0.1977,0.1921,0.1965,0.2012,0.2097,0.2178,0.2043,0.2265,0.2272,0.218,0.2306,0.2086,0.2318,0.2449,0.2453,0.2456,0,0.1512,0.1545,0.1599,0.1658,0.1676,0.1712,0.1792,0.1842,0.1935,0.1978,0.204,0.2077,0.2171,0.2113,0.229,0.222,0.229,0.2341,0.2354,0.2251,0.2224,0.2253,0.2357,0.2497,0.2494,0.2491,0.2488,0,0.1503,0.1574,0.1611,0.1632,0.1701,0.1729,0.1774,0.186,0.1923,0.2051,0.2137,0.2225,0.2318,0.2399,0.2492,0.2426,0.2705,0.2628,0.2617,0.2614,0.2453,0.2428,0.2754,0.2753,0.2753,0.2752,0.2751,0,0.1529,0.1557,0.1605,0.1625,0.1672,0.1726,0.1805,0.1865,0.1993,0.211,0.2182,0.231,0.2396,0.2552,0.2593,0.2706,0.2799,0.2655,0.2682,0.2475,0.245,0.2596,0.2573,0.2763,0.276,0.2758,0.2756,0,0.1511,0.1551,0.1582,0.1642,0.1665,0.1694,0.1809,0.1895,0.2012,0.2184,0.2244,0.2434,0.2634,0.2727,0.2911,0.2852,0.2955,0.2966,0.2732,0.2721,0.2791,0.2769,0.2992,0.2991,0.2991,0.299,0.299,0,0.1508,0.1522,0.1569,0.1602,0.1629,0.1692,0.1766,0.1881,0.1997,0.2265,0.2372,0.2607,0.2728,0.2958,0.2954,0.3039,0.3055,0.2849,0.262,0.2811,0.2816,0.2795,0.2775,0.2487,0.2483,0.2479,0.2476,0,0.1484,0.1493,0.1519,0.1594,0.1657,0.1729,0.1847,0.1919,0.2113,0.2249,0.2486,0.2594,0.2806,0.2781,0.2854,0.2842,0.2798,0.277,0.3096,0.2415,0.2345,0.2346,0.2341,0.2443,0.2446,0.2449,0.245,0.2452,0.1458,0.1469,0.1526,0.1607,0.1677,0.1775,0.1806,0.195,0.2081,0.2243,0.2417,0.2488,0.2575,0.2542,0.2538,0.2523,0.266,0.251,0.2518,0.2531,0.2374,0.2301,0.2367,0.2369,0.2372,0.2374,0.2376,0,0.1463,0.1513,0.1563,0.1645,0.171,0.1769,0.1886,0.1882,0.1984,0.2135,0.2226,0.2069,0.2076,0.2193,0.212,0.211,0.2043,0.2024,0.1932,0.1967,0.1998,0.1808,0.1655,0.1653,0.165,0.1648,0,0,0.1476,0.1534,0.1579,0.1681,0.1735,0.1772,0.1807,0.1791,0.1843,0.1798,0.1814,0.193,0.2096,0.1839,0.1831,0.1753,0.1831,0.1673,0.2254,0.2181,0.2208,0.2287,0.2036,0,0,0,0,0]},{"header":{"parameterUnit":"m.s-1","parameterCategory":2,"la1":30.2991,"la2":30.254,"lo1":-89.0895,"lo2":-89.0444,"dx":0.0017,"dy":0.0017,"nx":28,"ny":28,"refTime":"2022-12-09T15:00:00:Z","depth":"2","parameterNumber":3,"parameterNumberName":"V-component_of_CURRENTS"},"data":[0,0,0,0,0,0,0,0,0,0,0,0,0,0,0,0,0,0,0,0,0,0,0,0,0,0,0,0,0,0,0,0,0,0,0,0,0,0,0,0,0,0,0,0,0,0,0,0,0,0,0,0,0,0,0,0,0,0,-0.029,-0.029,0,-0.0344,-0.0344,-0.0345,-0.04,-0.04,-0.0401,-0.0402,-0.0483,-0.0484,-0.0486,0,0,0,0,0,0,0,0,0,0,0,0,0,-0.0245,-0.0246,-0.029,-0.029,-0.0291,-0.0343,-0.0344,-0.0345,-0.0399,-0.04,-0.0401,-0.0402,-0.0482,-0.0484,-0.0486,0,0,0,0,0,0,0,0,0,0,0,0,0,-0.0279,-0.0246,-0.029,-0.0324,-0.0328,-0.0343,-0.0344,-0.0345,-0.0399,-0.04,-0.0401,-0.0402,-0.0482,-0.0484,-0.0486,-0.0479,0,0,-0.0493,-0.0494,0,0,0,0,0,0,0,0,-0.0277,-0.028,-0.0318,-0.0322,-0.0326,-0.0365,-0.0358,-0.0391,-0.0399,-0.0373,-0.0402,-0.0403,-0.0445,-0.045,-0.0458,-0.0483,-0.0486,-0.0493,-0.0495,-0.0495,-0.0496,0,0,0,0,0,0,0,-0.0274,-0.0278,-0.0312,-0.0319,-0.0323,-0.0341,-0.0347,-0.0365,-0.0403,-0.0375,-0.0379,-0.0384,-0.0447,-0.0456,-0.0461,-0.0488,-0.0493,-0.0495,-0.0496,-0.0497,-0.0545,-0.0545,0,0,0,0,0,0,-0.0265,-0.0276,-0.031,-0.0313,-0.0303,-0.034,-0.0347,-0.0352,-0.0402,-0.0411,-0.0383,-0.0386,-0.0452,-0.0458,-0.0464,-0.0496,-0.0495,-0.0498,-0.0499,-0.0545,-0.0545,-0.0545,0,0,0,0,0,0,-0.0264,-0.0267,-0.0308,-0.0295,-0.0302,-0.034,-0.0345,-0.0353,-0.0371,-0.0408,-0.0417,-0.0395,-0.0453,-0.0461,-0.0488,-0.0498,-0.0499,-0.0501,-0.0546,-0.0545,-0.0545,-0.0536,0,0,0,0,0,0,-0.0262,-0.0267,-0.0268,-0.0295,-0.0302,-0.0315,-0.0344,-0.0353,-0.0372,-0.0377,-0.0421,-0.0429,-0.0454,-0.0484,-0.049,-0.0501,-0.0502,-0.0546,-0.0546,-0.0545,-0.0536,-0.0535,-0.0535,0,0,0,0,0,-0.026,-0.0252,-0.0268,-0.0272,-0.0302,-0.0314,-0.0319,-0.035,-0.0371,-0.0373,-0.0409,-0.0429,-0.0488,-0.0486,-0.0493,-0.0505,-0.0546,-0.0546,-0.0545,-0.0537,-0.0536,-0.0535,0,0,0,0,0,0,-0.0227,-0.0257,-0.0275,-0.0276,-0.0294,-0.0323,-0.0327,-0.035,-0.0378,-0.0391,-0.0427,-0.0437,-0.0467,-0.048,-0.0478,-0.0516,-0.052,-0.0521,-0.0511,-0.051,-0.0509,-0.0497,-0.0504,0,0,0,0,0,-0.0221,-0.0229,-0.0256,-0.0257,-0.0265,-0.0298,-0.0308,-0.0332,-0.0359,-0.0374,-0.0405,-0.0439,-0.0468,-0.0485,-0.0509,-0.0527,-0.0538,-0.0538,-0.0537,-0.0537,-0.053,-0.0564,-0.0566,-0.0545,-0.0545,-0.0545,0,0,-0.0208,-0.0226,-0.0231,-0.0252,-0.0271,-0.0275,-0.0307,-0.0323,-0.0333,-0.0377,-0.0402,-0.0438,-0.0471,-0.0498,-0.0511,-0.0513,-0.0545,-0.0536,-0.0536,-0.053,-0.0564,-0.0567,-0.0568,-0.0545,-0.0545,-0.0545,0,0,-0.0182,-0.0203,-0.02,-0.0213,-0.0241,-0.0261,-0.0265,-0.0299,-0.0322,-0.0349,-0.0387,-0.0424,-0.0464,-0.0493,-0.0512,-0.0516,-0.054,-0.0528,-0.0517,-0.055,-0.0552,-0.0554,-0.0557,-0.056,-0.0527,-0.0527,-0.0527,0,-0.0167,-0.0166,-0.0199,-0.0198,-0.0204,-0.0252,-0.0245,-0.0273,-0.0314,-0.0328,-0.0356,-0.0423,-0.0461,-0.049,-0.0504,-0.0516,-0.053,-0.052,-0.055,-0.0552,-0.0554,-0.0557,-0.056,-0.0527,-0.0527,-0.0527,-0.0527,0,-0.0138,-0.0139,-0.0136,-0.0155,-0.0165,-0.0167,-0.0206,-0.0228,-0.0268,-0.0298,-0.0342,-0.0398,-0.0435,-0.0461,-0.0492,-0.0525,-0.0527,-0.0546,-0.0553,-0.0556,-0.0558,-0.0562,-0.0526,-0.0526,-0.0526,-0.0527,0,0,-0.0103,-0.0113,-0.0115,-0.011,-0.0142,-0.0145,-0.0166,-0.0191,-0.0195,-0.0264,-0.0266,-0.0356,-0.0394,-0.0417,-0.0462,-0.0504,-0.0543,-0.0537,-0.0539,-0.054,-0.0599,-0.0608,-0.0612,-0.0577,-0.0578,-0.0578,-0.0589,0,-0.0072,-0.0048,-0.007,-0.0055,-0.0042,-0.0088,-0.0094,-0.013,-0.0167,-0.0181,-0.0262,-0.0278,-0.0374,-0.0382,-0.0452,-0.0497,-0.0553,-0.0537,-0.0595,-0.0596,-0.0605,-0.0617,-0.0588,-0.0598,-0.0592,-0.0593,-0.0593,0,-0.0038,-0.0025,0.0003,0.0008,0.0007,0.0001,-0.0013,-0.0022,-0.0064,-0.0086,-0.0141,-0.0188,-0.0249,-0.0327,-0.0448,-0.0434,-0.0528,-0.0583,-0.0585,-0.0598,-0.0612,-0.0597,-0.0604,-0.0599,-0.0598,-0.0598,-0.0598,0,0.0013,0.0024,0.005,0.005,0.0045,0.0039,0.0033,0.0001,0.0028,-0.0008,0.0027,-0.0091,-0.0092,-0.0243,-0.0378,-0.0412,-0.0498,-0.0549,-0.0651,-0.065,-0.0639,-0.0636,-0.0662,-0.0662,-0.0662,-0.0662,-0.0662,0,0.0067,0.0082,0.0073,0.0089,0.0125,0.0093,0.0132,0.0111,0.0129,0.02,0.0088,0.0131,-0.0075,-0.015,-0.0324,-0.0477,-0.0461,-0.0646,-0.0661,-0.0632,-0.063,-0.0644,-0.0642,-0.0662,-0.0662,-0.0662,-0.0662,0,0.0123,0.0115,0.0146,0.0146,0.0152,0.0176,0.0229,0.028,0.0275,0.0377,0.039,0.0323,0.0218,0.0012,-0.0189,-0.0361,-0.0526,-0.0598,-0.0535,-0.0545,-0.0672,-0.0669,-0.0708,-0.0709,-0.071,-0.071,-0.071,0,0.0156,0.0177,0.0199,0.0245,0.0246,0.0289,0.0348,0.0353,0.0435,0.051,0.0588,0.0515,0.0456,0.0161,-0.0142,-0.0434,-0.0499,-0.0593,-0.0679,-0.067,-0.0681,-0.0677,-0.0673,-0.0647,-0.0647,-0.0647,-0.0647,0,0.0223,0.0218,0.0251,0.0346,0.0406,0.0495,0.0576,0.0661,0.0713,0.0793,0.0883,0.0836,0.0549,0.0248,-0.0157,-0.0359,-0.0549,-0.0601,-0.0597,-0.0645,-0.0615,-0.0625,-0.0623,-0.0645,-0.0645,-0.0646,-0.0646,-0.0646,0.0264,0.0312,0.0363,0.0449,0.0543,0.0682,0.0779,0.0888,0.1015,0.1119,0.1063,0.0987,0.0648,0.0108,-0.0194,-0.0511,-0.0548,-0.0681,-0.068,-0.068,-0.0676,-0.065,-0.0683,-0.0683,-0.0684,-0.0684,-0.0684,0,0.0316,0.0379,0.0479,0.0583,0.071,0.0746,0.0929,0.1026,0.1185,0.1237,0.1242,0.0912,0.0548,0.0189,-0.0284,-0.0589,-0.0614,-0.0669,-0.0641,-0.0642,-0.0643,-0.0637,-0.0633,-0.0633,-0.0634,-0.0634,0,0,0.035,0.0442,0.0494,0.069,0.0795,0.0984,0.1101,0.124,0.1311,0.1329,0.1267,0.1076,0.0636,0.0311,-0.0097,-0.0348,-0.0415,-0.0395,-0.0413,-0.0333,-0.0329,-0.0638,-0.0629,0,0,0,0,0]}],[{"header":{"parameterUnit":"m.s-1","parameterCategory":2,"la1":30.2991,"la2":30.254,"lo1":-89.0895,"lo2":-89.0444,"dx":0.0017,"dy":0.0017,"nx":28,"ny":28,"refTime":"2022-12-09T15:00:00:Z","depth":"4","parameterNumber":2,"parameterNumberName":"U-component_of_CURRENTS"},"data":[0,0,0,0,0,0,0,0,0,0,0,0,0,0,0,0,0,0,0,0,0,0,0,0,0,0,0,0,0,0,0,0,0,0,0,0,0,0,0,0,0,0,0,0,0,0,0,0,0,0,0,0,0,0,0,0,0,0,0.0589,0.0589,0,0.0657,0.0658,0.0658,0.0723,0.0724,0.0725,0.0726,0.0855,0.0857,0.086,0,0,0,0,0,0,0,0,0,0,0,0,0,0.0512,0.0513,0.0589,0.059,0.059,0.0657,0.0658,0.0659,0.0723,0.0724,0.0725,0.0727,0.0854,0.0857,0.086,0,0,0,0,0,0,0,0,0,0,0,0,0,0.0558,0.0513,0.0588,0.0632,0.0636,0.0657,0.0658,0.0659,0.0723,0.0724,0.0726,0.0727,0.0853,0.0857,0.086,0.0857,0,0,0.0872,0.0874,0,0,0,0,0,0,0,0,0.0555,0.0561,0.0624,0.0629,0.0634,0.0684,0.0678,0.0728,0.0723,0.0689,0.0726,0.0728,0.0803,0.0811,0.0818,0.0863,0.0868,0.0873,0.0875,0.0877,0.0878,0,0,0,0,0,0,0,0.0552,0.0558,0.0615,0.0625,0.0631,0.0647,0.0655,0.0687,0.0738,0.0692,0.0697,0.0706,0.0806,0.0814,0.0822,0.087,0.0872,0.0876,0.0878,0.088,0.097,0.097,0,0,0,0,0,0,0.0544,0.0555,0.0613,0.0617,0.0598,0.0647,0.0656,0.0666,0.0736,0.0748,0.0705,0.0709,0.0807,0.0817,0.0827,0.092,0.0877,0.088,0.0882,0.097,0.097,0.097,0,0,0,0,0,0,0.0542,0.0549,0.061,0.0588,0.0597,0.0647,0.0657,0.0666,0.0691,0.0745,0.0759,0.0723,0.0809,0.0822,0.0871,0.0922,0.0882,0.0885,0.097,0.097,0.097,0.1047,0,0,0,0,0,0,0.054,0.0548,0.0559,0.0588,0.0598,0.0639,0.0656,0.0667,0.0694,0.0701,0.0765,0.0777,0.0811,0.0865,0.0875,0.0927,0.0888,0.097,0.097,0.097,0.1044,0.105,0.1054,0,0,0,0,0,0.0537,0.0548,0.0559,0.0567,0.061,0.064,0.0647,0.0686,0.0694,0.0712,0.075,0.0776,0.0873,0.0869,0.088,0.0934,0.097,0.097,0.097,0.1042,0.1049,0.1054,0,0,0,0,0,0,0.0523,0.0556,0.0569,0.0591,0.062,0.0652,0.0675,0.0687,0.0728,0.0744,0.078,0.0796,0.0863,0.0867,0.086,0.0953,0.0924,0.0927,0.0975,0.0981,0.0986,0.1021,0.0892,0,0,0,0,0,0.0521,0.054,0.0572,0.0591,0.0608,0.0638,0.0656,0.0684,0.0718,0.0738,0.0783,0.0823,0.0867,0.0898,0.0937,0.0983,0.099,0.1019,0.1024,0.1028,0.106,0.1097,0.111,0.0971,0.0971,0.0971,0,0,0.0518,0.0542,0.0552,0.059,0.0617,0.0652,0.0654,0.0692,0.0731,0.0746,0.0818,0.085,0.088,0.0947,0.0976,0.0962,0.1063,0.1029,0.1033,0.1063,0.1099,0.1113,0.1126,0.0971,0.0971,0.0971,0,0,0.0526,0.0547,0.0569,0.0599,0.0647,0.067,0.0681,0.0727,0.0761,0.082,0.0844,0.0901,0.0961,0.1006,0.1029,0.1074,0.1089,0.1079,0.1145,0.1181,0.1194,0.1205,0.1207,0.1218,0.1082,0.1082,0.1082,0,0.0526,0.0558,0.058,0.0617,0.0646,0.0678,0.0713,0.0751,0.0811,0.085,0.0857,0.0966,0.0997,0.1076,0.1107,0.1095,0.1103,0.1128,0.1192,0.1204,0.1214,0.1214,0.1225,0.1086,0.1085,0.1085,0.1085,0,0.0552,0.0587,0.0605,0.0662,0.0695,0.0732,0.0784,0.0831,0.0873,0.0922,0.1016,0.1058,0.1125,0.114,0.1154,0.1243,0.1218,0.1197,0.1188,0.1234,0.1228,0.1239,0.1091,0.109,0.1089,0.1088,0,0,0.0527,0.0606,0.0616,0.0656,0.0724,0.0756,0.0823,0.0897,0.0955,0.1032,0.1112,0.12,0.1235,0.1262,0.1277,0.1323,0.1402,0.1309,0.1309,0.133,0.1468,0.1397,0.1401,0.1401,0.1403,0.1406,0.1426,0,0.0543,0.0611,0.0648,0.0722,0.0761,0.0817,0.0878,0.0956,0.1022,0.1113,0.1183,0.1274,0.1273,0.1324,0.137,0.1403,0.1439,0.1398,0.1404,0.1404,0.1353,0.1415,0.1415,0.1434,0.1436,0.1438,0.1439,0,0.0554,0.0603,0.0668,0.0763,0.0787,0.0845,0.0948,0.1011,0.1134,0.1192,0.1289,0.1347,0.1452,0.1432,0.1519,0.1496,0.1502,0.1512,0.1512,0.1438,0.1356,0.1381,0.1459,0.1457,0.1456,0.1454,0.1453,0,0.0524,0.0617,0.067,0.0703,0.0813,0.0868,0.0937,0.1049,0.1116,0.126,0.1329,0.1437,0.1509,0.1549,0.1594,0.1567,0.167,0.1614,0.1546,0.1538,0.1562,0.1549,0.1675,0.1675,0.1675,0.1675,0.1675,0,0.0521,0.0569,0.0671,0.071,0.0793,0.0876,0.0976,0.1058,0.1184,0.128,0.138,0.1463,0.1553,0.1621,0.1628,0.1633,0.169,0.1586,0.1558,0.1585,0.1575,0.1568,0.1555,0.1676,0.1676,0.1675,0.1675,0,0.0482,0.0544,0.062,0.0743,0.0784,0.0854,0.0997,0.107,0.1191,0.1313,0.1374,0.1515,0.1601,0.1655,0.1723,0.167,0.1683,0.1664,0.1698,0.1666,0.1506,0.1497,0.1572,0.157,0.1569,0.1567,0.1566,0,0.0465,0.0497,0.063,0.068,0.0745,0.0852,0.0923,0.1063,0.1135,0.1333,0.1387,0.1533,0.1609,0.1637,0.1693,0.1692,0.1671,0.1651,0.1583,0.1541,0.1506,0.1499,0.1492,0.1564,0.1563,0.1563,0.1562,0,0.0429,0.0481,0.0544,0.0649,0.0737,0.0821,0.0937,0.0982,0.1145,0.1263,0.1388,0.1463,0.155,0.1596,0.1622,0.1615,0.1654,0.1633,0.1635,0.1571,0.1531,0.1496,0.1491,0.1557,0.1558,0.1558,0.1558,0,0.0391,0.0429,0.0516,0.0609,0.0704,0.0776,0.0842,0.0945,0.1035,0.1245,0.1287,0.1432,0.155,0.1558,0.1585,0.1581,0.1534,0.1467,0.1476,0.1482,0.1446,0.1382,0.1366,0,0,0,0,0,0.0351,0.0397,0.0472,0.0574,0.0664,0.0723,0.0844,0.0908,0.1057,0.1118,0.1202,0.1289,0.1368,0.1437,0.1409,0.1512,0.1517,0.1472,0.1437,0.1526,0.1532,0.1499,0,0,0,0,0,0,0.0327,0.039,0.0448,0.052,0.0577,0.0669,0.074,0.084,0.0874,0.1033,0.1077,0.1206,0.1284,0.1367,0.1383,0.1399,0.1351,0.1556,0.1553,0.1522,0.1528,0.1533,0.1502,0,0,0,0,0]},{"header":{"parameterUnit":"m.s-1","parameterCategory":2,"la1":30.2991,"la2":30.254,"lo1":-89.0895,"lo2":-89.0444,"dx":0.0017,"dy":0.0017,"nx":28,"ny":28,"refTime":"2022-12-09T15:00:00:Z","depth":"4","parameterNumber":3,"parameterNumberName":"V-component_of_CURRENTS"},"data":[0,0,0,0,0,0,0,0,0,0,0,0,0,0,0,0,0,0,0,0,0,0,0,0,0,0,0,0,0,0,0,0,0,0,0,0,0,0,0,0,0,0,0,0,0,0,0,0,0,0,0,0,0,0,0,0,0,0,0.0304,0.0304,0,0.0271,0.027,0.027,0.023,0.023,0.0229,0.0229,0.0163,0.0161,0.016,0,0,0,0,0,0,0,0,0,0,0,0,0,0.0299,0.0299,0.0304,0.0304,0.0304,0.0271,0.027,0.027,0.023,0.023,0.0229,0.0229,0.0163,0.0161,0.016,0,0,0,0,0,0,0,0,0,0,0,0,0,0.0286,0.0299,0.0304,0.0281,0.0279,0.0271,0.027,0.0269,0.023,0.023,0.0229,0.0228,0.0164,0.0162,0.016,0.0162,0,0,0.0154,0.0153,0,0,0,0,0,0,0,0,0.0286,0.0286,0.0285,0.0283,0.028,0.0255,0.0244,0.0232,0.0231,0.0248,0.0229,0.0228,0.0192,0.0187,0.0182,0.0159,0.0156,0.0153,0.0152,0.0151,0.0151,0,0,0,0,0,0,0,0.0287,0.0287,0.029,0.0285,0.0282,0.026,0.0257,0.0241,0.0223,0.0246,0.0243,0.0242,0.019,0.0184,0.018,0.0155,0.0154,0.0152,0.0151,0.015,0.0124,0.0125,0,0,0,0,0,0,0.0297,0.0288,0.0291,0.0289,0.0283,0.0261,0.0258,0.0263,0.0223,0.0217,0.0242,0.024,0.0187,0.0182,0.0177,0.019,0.0151,0.015,0.0149,0.0124,0.0124,0.0125,0,0,0,0,0,0,0.0297,0.0298,0.0292,0.0288,0.0286,0.0262,0.0267,0.0263,0.0256,0.0221,0.0214,0.0241,0.0186,0.018,0.0168,0.0187,0.0149,0.0147,0.0123,0.0124,0.0125,0.0209,0,0,0,0,0,0,0.0297,0.0298,0.0307,0.0289,0.0287,0.0295,0.0268,0.0262,0.0257,0.0253,0.0218,0.0211,0.0185,0.0171,0.0166,0.0184,0.0145,0.0123,0.0123,0.0124,0.0206,0.0212,0.0218,0,0,0,0,0,0.0297,0.0317,0.0308,0.0308,0.0299,0.0295,0.0292,0.0271,0.0258,0.0262,0.0237,0.0212,0.0173,0.0171,0.0164,0.0181,0.0122,0.0123,0.0124,0.0203,0.0211,0.0218,0,0,0,0,0,0,0.032,0.0314,0.0304,0.032,0.0311,0.0289,0.0293,0.0278,0.0262,0.0258,0.0221,0.0213,0.0207,0.0182,0.018,0.0175,0.0143,0.0143,0.0204,0.0212,0.0218,0.0218,0.0144,0,0,0,0,0,0.0329,0.0342,0.0328,0.0341,0.0338,0.0316,0.0313,0.0299,0.0282,0.0274,0.025,0.0224,0.0207,0.0201,0.0177,0.0181,0.0119,0.0185,0.0192,0.0198,0.0192,0.0112,0.011,0.0129,0.0129,0.0128,0,0,0.0343,0.0341,0.0349,0.0347,0.0337,0.0347,0.0312,0.0313,0.0323,0.027,0.0276,0.0244,0.0211,0.0211,0.0206,0.0195,0.0161,0.0199,0.0205,0.0195,0.0113,0.0111,0.0109,0.0129,0.0129,0.0129,0,0,0.038,0.0374,0.0397,0.0393,0.0385,0.0373,0.0376,0.0358,0.035,0.0351,0.0314,0.0294,0.0273,0.0253,0.024,0.0268,0.0193,0.0261,0.0301,0.0224,0.0222,0.0219,0.0143,0.0133,0.0271,0.0271,0.0271,0,0.0394,0.0421,0.0402,0.0421,0.0424,0.0389,0.0411,0.0405,0.0386,0.0376,0.0364,0.0312,0.0293,0.028,0.0297,0.0283,0.022,0.0279,0.0232,0.0228,0.0223,0.0146,0.0134,0.0275,0.0274,0.0274,0.0274,0,0.0446,0.0466,0.0479,0.0493,0.0493,0.0506,0.0492,0.0489,0.0472,0.0452,0.0427,0.0391,0.0352,0.0354,0.0341,0.0308,0.0266,0.0245,0.0213,0.0226,0.0145,0.013,0.0281,0.0279,0.0278,0.0277,0,0,0.048,0.051,0.0516,0.0527,0.0531,0.0532,0.0553,0.0546,0.0535,0.0516,0.0488,0.048,0.0431,0.0413,0.0381,0.0334,0.0266,0.0286,0.028,0.0213,0.0082,0.0086,0.0069,0.0227,0.0225,0.0223,0.004,0,0.0524,0.0573,0.0579,0.0619,0.0635,0.0616,0.063,0.0616,0.0586,0.0548,0.0504,0.0464,0.0462,0.0431,0.0388,0.0282,0.0229,0.0317,0.0077,0.007,0.0073,0.0053,0.0217,0.0029,0.0025,0.0023,0.0021,0,0.0572,0.0595,0.0646,0.0664,0.0668,0.0689,0.0674,0.068,0.0626,0.0596,0.0545,0.0482,0.0421,0.0405,0.0245,0.0293,0.0199,0.0124,0.0114,0.0075,0.0046,0.0009,-0.0007,-0.0005,-0.0003,-0.0001,0.0001,0,0.059,0.0638,0.0677,0.0686,0.0705,0.0721,0.0725,0.0692,0.0677,0.0608,0.056,0.0475,0.0403,0.0288,0.0156,0.0181,-0.0046,-0.004,-0.0126,-0.0128,-0.0113,-0.0108,-0.0165,-0.0165,-0.0164,-0.0164,-0.0163,0,0.0624,0.0654,0.0689,0.0708,0.0733,0.0741,0.0743,0.0729,0.0685,0.0648,0.0577,0.0511,0.0365,0.0226,0.0123,-0.0052,-0.008,-0.0134,-0.0178,-0.0072,-0.006,-0.0124,-0.0117,-0.0171,-0.0169,-0.0168,-0.0167,0,0.063,0.0662,0.07,0.0735,0.0743,0.0756,0.076,0.0747,0.0711,0.0652,0.0626,0.05,0.0327,0.0173,-0.0043,-0.0106,-0.0264,-0.0318,-0.0206,-0.0239,-0.0286,-0.0273,-0.0438,-0.044,-0.0441,-0.0442,-0.0443,0,0.0633,0.0656,0.0706,0.0718,0.0738,0.0757,0.0761,0.0757,0.074,0.0648,0.0612,0.0439,0.0343,0.0037,-0.0108,-0.0336,-0.0344,-0.0428,-0.0331,-0.029,-0.0317,-0.0301,-0.0286,-0.0445,-0.0445,-0.0445,-0.0446,0,0.0617,0.0643,0.0663,0.0697,0.0719,0.0742,0.0756,0.0744,0.0725,0.0691,0.058,0.0433,0.0226,0.003,-0.0163,-0.0307,-0.037,-0.0441,-0.0438,-0.0347,-0.03,-0.0322,-0.0306,-0.045,-0.045,-0.0449,-0.0449,0,0.0583,0.0592,0.0621,0.0648,0.0685,0.0715,0.0732,0.0712,0.0697,0.0624,0.0585,0.039,0.028,0.004,-0.0127,-0.0283,-0.0297,-0.0309,-0.0313,-0.031,-0.0196,-0.0112,-0.0257,0,0,0,0,0,0.0535,0.054,0.0563,0.0598,0.0648,0.068,0.0712,0.0727,0.0717,0.0646,0.0622,0.0445,0.019,0.0075,-0.0083,-0.0149,-0.033,-0.0336,-0.0347,-0.0474,-0.0469,-0.0354,0,0,0,0,0,0,0.0494,0.051,0.0537,0.0559,0.0587,0.0639,0.0673,0.0677,0.0643,0.0616,0.0479,0.0423,0.0168,0.0272,-0.0085,-0.0134,-0.0155,-0.0455,-0.0457,-0.0477,-0.0473,-0.0469,-0.0349,0,0,0,0,0]}]]